map of HEL home
HEL - Airport
Location
City:  Helsinki, Uusimaa (Nyland, Uusimaa), Finland
Name:Vantaa
ICAO:EFHK
IATA:HEL

Details
Type:Airport (Aerodrome, Airfield)
Latitude:6019'02"N (60.317222)
Longitude:2457'48"E (24.963333)
Elevation:179 ft (55 m)
Variation:8.93E (WMM2015 magnetic declination)
0.16 annual change
Runways:3
Longest:11286 × 197 ft (3440 × 60 m), paved

Time
Time Zone:UTC+2 (DST+3)
Local Time:

Weather
METAR:EFHK 202120Z 36003KT 0500 R04R/1000N R15/1000N R22L/1100N R04L/1200N FZFG VV002 M02/M03 Q1024 NOSIG
TAF:EFHK 202033Z 2021/2121 01003KT 0800 FZFG FEW020
TEMPO 2021/2107 0500 VV002
BECMG 2107/2109 8000 NSW BKN005
BECMG 2110/2112 SCT012

Related Locations
Nearby:
Farthest:NZTB: 11012 mi / 17722 km
Terra Nova Bay [Mario Zucchelli Station], AQ

Find:

   beyond  
but within

Other Information
Maps:
NOTAMs:
Links:
Sources:

  
flag of Finland   

Sectional Chart

Flight Planning
at skyvector.com

Satellite Image

Google Maps Satellite view

 

Copyright © 2004-2017 Karl L. Swartz. All rights reserved.
The Great Circle Mapper name and logo are trademarks of the Great Circle Mapper.
All other trademarks mentioned herein belong to their respective owners.
Please see credits for attibutions and further copyright information.

  Follow gcmap on Facebook Follow gcmap on Twitter Follow gcmap on Google+ GCmap on LinkedIn

hCard Microformat

Geo Microformat